Blue Cypress Lake Weather Center

Moon Phase Calendar



Blue Cypress Lake Water Level
Online Cameras

 


      

Current Conditions in Fellsmere
5/20/2022 7:11:11 AM

75°F
Feels Like 77
Clouds
Humidity
92%
Pressure
30"
Wind
6 mph (S)
Dew Point
73°F
UV Index
0/10 (Low)
Visibility
6 mi

Hourly Forecast

Date & Time Fri, May 20
7:00 AM
Fri, May 20
8:00 AM
Fri, May 20
9:00 AM
Fri, May 20
10:00 AM
Fri, May 20
11:00 AM
Fri, May 20
12:00 PM
Fri, May 20
1:00 PM
Fri, May 20
2:00 PM
Fri, May 20
3:00 PM
Fri, May 20
4:00 PM
Fri, May 20
5:00 PM
Fri, May 20
6:00 PM
Fri, May 20
7:00 PM
Fri, May 20
8:00 PM
Fri, May 20
9:00 PM
Fri, May 20
10:00 PM
Fri, May 20
11:00 PM
Sat, May 21
12:00 AM
Sat, May 21
1:00 AM
Sat, May 21
2:00 AM
Sat, May 21
3:00 AM
Sat, May 21
4:00 AM
Sat, May 21
5:00 AM
Sat, May 21
6:00 AM
Sat, May 21
7:00 AM
Sat, May 21
8:00 AM
Sat, May 21
9:00 AM
Sat, May 21
10:00 AM
Sat, May 21
11:00 AM
Sat, May 21
12:00 PM
Sat, May 21
1:00 PM
Sat, May 21
2:00 PM
Sat, May 21
3:00 PM
Sat, May 21
4:00 PM
Sat, May 21
5:00 PM
Sat, May 21
6:00 PM
Sat, May 21
7:00 PM
Sat, May 21
8:00 PM
Sat, May 21
9:00 PM
Sat, May 21
10:00 PM
Sat, May 21
11:00 PM
Sun, May 22
12:00 AM
Sun, May 22
1:00 AM
Sun, May 22
2:00 AM
Sun, May 22
3:00 AM
Sun, May 22
4:00 AM
Sun, May 22
5:00 AM
Sun, May 22
6:00 AM
Condition
Clouds

Rain

Clouds

Clouds

Rain

Clouds

Clouds

Rain

Rain

Rain

Clouds

Clouds

Rain

Rain

Rain

Rain

Rain

Rain

Rain

Rain

Rain

Rain

Rain

Rain

Rain

Clouds

Clouds

Clouds

Clouds

Rain

Rain

Rain

Rain

Rain

Rain

Rain

Rain

Rain

Rain

Rain

Rain

Clouds

Clouds

Clouds

Clouds

Clouds

Clouds

Clouds
Temperature 75°F76°F76°F75°F74°F74°F73°F73°F73°F75°F74°F74°F70°F70°F70°F70°F71°F71°F70°F70°F70°F71°F71°F71°F71°F73°F77°F80°F82°F87°F88°F90°F91°F85°F82°F82°F77°F74°F73°F72°F69°F71°F72°F72°F73°F73°F73°F72°F
Feels Like 77°F77°F78°F76°F75°F74°F74°F73°F73°F76°F75°F75°F72°F72°F72°F71°F72°F72°F71°F71°F71°F72°F72°F72°F72°F74°F78°F84°F87°F92°F94°F95°F95°F89°F85°F86°F78°F75°F74°F73°F70°F72°F73°F73°F74°F74°F74°F74°F
Cloudiness 55%57%73%82%91%100%100%100%100%100%100%100%100%100%100%100%100%100%100%100%100%100%100%100%100%100%100%100%100%98%97%97%100%100%100%100%100%100%100%100%100%100%100%100%100%100%100%92%
Visibility 6 mi6 mi6 mi6 mi6 mi6 mi6 mi6 mi6 mi6 mi6 mi6 mi6 mi6 mi3 mi6 mi6 mi6 mi6 mi6 mi6 mi6 mi6 mi6 mi6 mi6 mi6 mi6 mi6 mi6 mi6 mi6 mi6 mi6 mi6 mi6 mi6 mi6 mi6 mi6 mi6 mi6 mi6 mi6 mi6 mi6 mi6 mi6 mi
Precipitation 5%37%41%45%61%57%58%50%62%46%46%50%66%74%82%82%78%78%78%82%68%72%72%75%71%71%12%16%46%50%71%71%67%67%71%75%88%100%100%100%100%80%80%76%0%0%0%0%
Humidity 92%89%87%83%78%76%77%76%74%70%75%76%96%95%96%96%91%93%93%93%92%92%91%92%92%90%84%76%71%59%56%52%48%59%69%67%82%86%88%88%92%89%89%90%90%90%90%91%
Dew Point 73°F72°F72°F70°F67°F66°F65°F65°F64°F65°F65°F66°F69°F69°F69°F69°F68°F68°F68°F68°F68°F68°F68°F68°F69°F70°F71°F72°F72°F71°F71°F69°F68°F69°F70°F70°F71°F70°F69°F68°F67°F67°F68°F69°F70°F70°F70°F70°F
Pressure 30"30"30"30.03"30.06"30.06"30.06"30.06"30.06"30.06"30.03"30.06"30.09"30.12"30.12"30.12"30.12"30.12"30.12"30.09"30.09"30.09"30.09"30.09"30.12"30.15"30.15"30.18"30.18"30.18"30.18"30.15"30.12"30.15"30.15"30.15"30.18"30.21"30.21"30.27"30.24"30.21"30.21"30.18"30.15"30.18"30.15"30.18"
Wind Speed 6 mph7.1 mph12 mph9.5 mph10.5 mph11.5 mph10.2 mph12 mph9.4 mph11.9 mph12.8 mph10.5 mph9.8 mph11 mph12.4 mph15.1 mph14.7 mph14.3 mph16.3 mph16.8 mph11.7 mph7.4 mph7.8 mph6 mph6.8 mph5.2 mph5.7 mph7.9 mph9.3 mph10 mph8.2 mph3.7 mph3.8 mph7 mph8.2 mph9.1 mph14.1 mph10.9 mph5.8 mph9 mph5.3 mph4.7 mph5.3 mph6.7 mph5.5 mph4.2 mph4.7 mph4.1 mph
Wind
Direction
176°
S
186°
S
203°
SSW
211°
SSW
221°
SW
203°
SSW
240°
WSW
223°
SW
204°
SSW
179°
S
174°
S
198°
SSW
200°
SSW
192°
SSW
177°
S
163°
SSE
168°
SSE
160°
SSE
161°
SSE
152°
SSE
168°
SSE
150°
SSE
140°
SE
139°
SE
143°
SE
156°
SSE
148°
SSE
143°
SE
153°
SSE
166°
SSE
172°
S
136°
SE
44°
NE
85°
E
84°
E
48°
NE
68°
ENE
73°
ENE
108°
ESE
197°
SSW
188°
S
150°
SSE
145°
SE
111°
ESE
102°
ESE
133°
SE
133°
SE
140°
SE

Daily Forecast

Date High Low Precip. Humidity
Today
May 20

Rain
76 °F
70 °F
82%
77%
Saturday
May 21

Rain
91 °F
69 °F
100%
56%
Sunday
May 22

Rain
92 °F
72 °F
87%
44%
Monday
May 23

Rain
90 °F
72 °F
100%
44%
Tuesday
May 24

Clouds
88 °F
72 °F
13%
45%
Wednesday
May 25

Clouds
90 °F
74 °F
15%
42%
Thursday
May 26

Rain
91 °F
74 °F
20%
40%
Friday
May 27

Rain
87 °F
71 °F
100%
59%
Saturday
May 28

Rain
91 °F
71 °F
96%
45%
Sunday
May 29

Rain
91 °F
73 °F
80%
45%
Monday
May 30

Rain
90 °F
73 °F
79%
46%
Tuesday
May 31

Rain
91 °F
73 °F
24%
45%
Wednesday
Jun 1

Rain
89 °F
73 °F
28%
48%
Thursday
Jun 2

Clear
89 °F
72 °F
0%
51%
Friday
Jun 3

Rain
87 °F
73 °F
25%
53%
Saturday
Jun 4

Rain
79 °F
67 °F
100%
89%

Temperature 8-14 Day Outlook



Precipitation 8-14 Day Outlook




Quick Links
Blue Cypress Lake News
Blue Cypress Lake Photos
Blue Cypress Lake Videos




About Us
Contact Us
Site Map
Search Site
Advertise With Us
   
BlueCypress.LakesOnline.com
THE BLUE CYPRESS LAKE WEBSITE

Copyright 2022, Lakes Online
Privacy    |    Legal